Tracking 19149 objects as of 21-Apr-2018
HD Live streaming from Space Station
objects crossing your sky now

FENGYUN 1C DEB

Track FENGYUN 1C DEB now!
10-day predictions


NORAD ID: 30293
Int'l Code: 1999-025ZE
Perigee: 713.4 km
Apogee: 850.4 km
Inclination: 99.2 °
Period: 100.3 minutes
Semi major axis: 7152 km
RCS: 0.0098 m2 (small)
Launch date: May 10, 1999
Source: People's Republic of China (PRC)
Launch site: Taiyaun Space Center, China (TSC)

Note: This is SATELLITE DEBRIS
aabbcc
Your satellite tracking list
Your tracking list is empty




NASA's NSSDC Master Catalog

Two Line Element Set (TLE):
1 30293U 99025ZE  18110.82184255  .00000410  00000-0  15342-3 0  9991
2 30293  99.2133  54.8521 0095726 357.2879  28.8268 14.35092160588377
Source of the keplerian elements: AFSPC